Location: *
(42.5628°N, 2.3633°E)
Time: 01:57:36
(UTC+00:00)

Cosmos 1269 Rocket - Pass Details

Date: 30 March 2020
Orbit: 772 x 779 km, 74.1° (Epoch: 31 May)

Event Time Altitude Azimuth Distance (km) Brightness Sun altitude
Rises 18:45:09 0° 186° (S) 3,235 7.2 -6.4°
Reaches altitude 10° 18:47:33 10° 182° (S) 2,313 6.4 -6.8°
Maximum altitude 18:52:40 56° 105° (ESE) 917 4.1 -7.7°
Drops below altitude 10° 18:57:51 10° 28° (NNE) 2,333 6.4 -8.6°
Sets 19:00:16 0° 25° (NNE) 3,266 7.2 -9.1°
